EW9477 Weather Reports


time (UTC)temp
C
wind
direction
speed
KPH
gust
KPH
rain 1hr
cm
rain 24hr
cm
rain mn
cm
humidity
%
barometer
mb
20260504194603 18 139 4.8 14.5 0.00 0.00 0.00 52 1007.1
20260504193100 19 152 6.4 14.5 0.00 0.00 0.00 49 1007.2
20260504191551 19 178 6.4 14.5 0.00 0.00 0.00 48 1007.2
20260504184558 20 143 6.4 14.5 0.00 0.00 0.00 46 1007.5
20260504183045 20 265 4.8 14.5 0.00 0.00 0.00 44 1007.6
20260504181545 21 123 3.2 11.3 0.00 0.00 0.00 43 1007.7
20260504180044 20 243 4.8 12.9 0.00 0.00 0.00 45 1007.8
20260504174543 20 154 4.8 14.5 0.00 0.00 0.00 45 1007.9
20260504173047 20 157 4.8 16.1 0.00 0.00 0.00 44 1008.1
20260504171536 19 63 6.4 12.9 0.00 0.00 0.00 43 1008.4
20260504140110 17 222 8.0 17.7 0.00 0.00 0.00 42 1009.8
20260504090111 7 235 0.0 3.2 0.00 0.00 0.00 65 1010.1
20260504081544 7 165 0.0 4.8 0.00 0.00 0.00 65 1009.9
20260504044538 7 215 0.0 4.8 0.00 0.00 0.00 65 1009.0
20260504043033 7 338 0.0 1.6 0.00 0.00 0.00 64 1009.0
20260504041522 8 338 0.0 1.6 0.00 0.00 0.00 62 1008.9
20260504040020 8 338 0.0 3.2 0.00 0.00 0.00 59 1008.9
20260504034531 8 338 0.0 3.2 0.00 0.00 0.00 56 1008.9
20260504033021 8 339 0.0 1.6 0.00 0.00 0.00 54 1008.8
20260504031518 9 338 0.0 4.8 0.00 0.00 0.00 51 1008.8
20260504030017 9 221 0.0 1.6 0.00 0.00 0.00 47 1008.8
20260504024521 9 221 0.0 1.6 0.00 0.00 0.00 46 1008.8
20260504023017 9 302 0.0 3.2 0.00 0.00 0.00 46 1008.8
20260504021520 9 323 0.0 6.4 0.00 0.00 0.00 46 1008.8
20260504020016 9 39 0.0 3.2 0.00 0.00 0.00 46 1008.8
20260504014515 10 39 0.0 1.6 0.00 0.00 0.00 45 1008.6
20260504013012 10 39 0.0 3.2 0.00 0.00 0.00 44 1008.5
20260504011509 10 39 0.0 1.6 0.00 0.00 0.00 43 1008.3
20260504010009 10 39 0.0 1.6 0.00 0.00 0.00 42 1008.2
20260504004510 11 39 0.0 1.6 0.00 0.00 0.00 41 1008.0
20260504003003 11 39 0.0 0.0 0.00 0.00 0.00 39 1007.8
20260504001502 12 39 0.0 0.0 0.00 0.00 0.00 37 1007.5
20260504000001 12 39 0.0 1.6 0.00 0.00 0.00 36 1007.3
20260503234501 12 39 0.0 6.4 0.00 0.00 0.00 34 1007.2
20260503233000 13 240 0.0 3.2 0.00 0.00 0.00 34 1007.0
20260503231600 13 360 1.6 9.7 0.00 0.00 0.00 32 1006.9
20260503230100 13 355 0.0 14.5 0.00 0.00 0.00 32 1006.8
20260503224559 13 360 3.2 12.9 0.00 0.00 0.00 32 1006.7
20260503224501 13 313 3.2 16.1 0.00 0.00 0.00 32 1006.6
20260503223059 13 348 3.2 12.9 0.00 0.00 0.00 32 1006.6
20260503221557 13 9 6.4 16.1 0.00 0.00 0.00 30 1006.6
20260503220109 14 306 8.0 17.7 0.00 0.00 0.00 30 1006.5
20260503214555 14 323 1.6 12.9 0.00 0.00 0.00 30 1006.5
20260503213056 14 337 4.8 12.9 0.00 0.00 0.00 31 1006.2
20260503211607 15 326 3.2 16.1 0.00 0.00 0.00 30 1006.3
20260503210057 15 238 6.4 17.7 0.00 0.00 0.00 29 1006.3
20260503204557 15 265 6.4 25.7 0.00 0.00 0.00 29 1006.1
20260503203052 15 5 3.2 24.1 0.00 0.00 0.00 30 1006.2
20260503201551 15 360 4.8 11.3 0.00 0.00 0.00 31 1006.4
20260503200049 15 304 4.8 22.5 0.00 0.00 0.00 32 1006.4